Location: Wanzleben
(52.0609°N, 11.4408°E)
Time: 02:56:19
(UTC+00:00)

Envisat - Pass Details

Date: 02 December 2020
Orbit: 764 x 766 km, 98.1° (Epoch: 20 January)

Event Time Altitude Azimuth Distance (km) Brightness Sun altitude
Rises 17:40:07 0° 215° (SW) 3,224 6.8 -22.7°
Reaches altitude 10° 17:43:21 10° 237° (WSW) 2,304 6.3 -23.2°
Maximum altitude 17:46:24 16° 274° (W) 1,934 6.0 -23.7°
Drops below altitude 10° 17:49:27 10° 311° (NW) 2,315 6.0 -24.1°
Sets 17:52:43 0° 333° (NNW) 3,248 6.5 -24.6°
